Timeline UpdatesTrip UpdatesNews PostsPvt Posts♥♥Travel TipsAdmin PostsConv PostsFollowed PostsChat RequestsBlog PostsPNR Posts

Disclaimer
Search
 
 
Sun Oct 26, 2014 12:29:17 ISTHomeTrainsΣChainsAtlasPNRForumGalleryNewsFAQTripsMembersLoginFeedback
No Recent News for this Train
Other Trains in the News **new
Latest...
.
Thu Jul 24, 2014 (11:10PM)
⇐ Return Journey: Train# 19019

19020/Dehradun - Mumbai Bandra Terminus Express

Time-Table HAS CHANGED.
Sep 03 2014 (11:17AM)
Change Departure Station:
Change Arrival Station:
Post a Train Travel TipPost a Train Travel Tip **new
Post a Comment/Question/Picture/VideoPost a Comment/Question/Picture/Video
Pantry/Catering
✕ NO Pantry Car
✓ Catering Avbl
Loco/Rake Reversals
SRE/Saharanpur Junction (6); LRJ/Laksar Junction (4);
RSA - Rake Sharing
Rake/Coach Composition
LOCO-SLR-HCPV-GEN-GEN-AB1-S1-S2-S3-S4-S5-S6-S7-S8-S9-SLR
Loco
GZB WAP-7 NZM-BDTS. ddn to nzm tkd wdp 3a. By Er...
Read more...
Ankit Shotra Bhagat Entry# 595554
News    PNR    Forum    Time-Table    Availability    Fare Chart    Map    Arr/Dep History    Trips    Gallery    ΣChains    X/O    Timeline    
Travel Time: 21h 30m    52 halts    Distance: 922 km    Avg Speed: 42 km/hr
Type: Mail/Express
Zone: WR/Western
Departs @ 06:50 (Avg 21m late)
Platform# ???
SMTWTFS
Keshorai Patan/KPTN 
Arrives @ 04:20 +1 night (Avg 3m early)
Platform# 1
SMTWTFS
Mumbai Bandra Terminus/BDTS 

52 halts. 152 intermediate Stations between Keshorai Patan and Mumbai Bandra Terminus

Show ALL intermediate Stations  Show Old Time-Table

#TrkCodeStation NameX/OArrivesAvgDepartsAvgHaltPFDay#KmSpeedElevZoneAddress
1%--%DDNDehradun (4)  -10:35 10:30+021-759.838648mNRDehradun, Uttarakhand
2%--%DWODoiwala  11:04 11:01+311:06 11:03+42m--1-739.941484mNRDehradun, Uttarakhand
3%--%RWLRaiwala Junction (2)X  11:38 11:33+811:40 11:35+162m21-719.217361mNRRishikesh, Uttarakhand
4%--%MOTCMotichur (2)  12:00 11:58+812:02 12:00+142m11-712.618312mNRHaridwar, Uttarakhand
5|--|HWHaridwar Junction (9)X  12:15+1112:45+1330m31-708.148294mNRHaridwar, Uttarakhand
6%--%JWPJwalapurX  12:53 12:50+1612:55 12:52+192m--1-704.120292mNRHaridwar, Uttarakhand
7%--%LRJLaksar Junction (4)XO14:00+2014:25+1825m--1-681.253238mNRLaksar, Uttarakhand
8/==/RKRoorkee (3)X  14:43 14:45+1814:45 14:50+172 5m31-663.446264mNRRoorkee - 247667, Uttarakhand
9/==/SRESaharanpur Junction (6)X15:35+1516:05+630m41-628.748276mNRSaharanpur, Uttar Pradesh
10%--%DBDDeoband (2)  16:50 16:48+1616:52 16:50+182m21-594.544258mNRSaharanpur, Uttar Pradesh
11%--%MOZMuzaffarnagar (3)X  17:20 17:23+1417:22 17:25+272m21-570.463247mNRMuzaffarNagar, Uttar Pradesh
12%--%KATKhatauli (2)  17:42 17:46+2917:44 17:48+292m11-548.376239mNRKhatauli, Uttar Pradesh
13%--%MUTMeerut Cantt. (2)  18:08 18:11+3518:10 18:13+352m11-519.212230mNRMeerut, Uttar Pradesh
14%--%MTCMeerut City Junction (6)X18:35+2319:20+1045m41-514.873229mNRMeerut, Uttar Pradesh
15%==%MDNRModinagar (2)X  19:34 19:36+1619:36 19:38+162m21-495.455221mNRGhaziabad, Uttar Pradesh
16%==%MUDMuradnagar (2)X  19:45 19:49+1519:47 19:51+152m21-485.359220mNRGhaziabad, Uttar Pradesh
17%==%GZNNew Ghaziabad (2)XO  20:02 20:03+820:04 20:05+82m21-473.514213mNRGhaziabad, Uttar Pradesh
18%==%GZBGhaziabad Junction (6)XO  20:30 20:31+520:32 20:33+92m41-467.634217mNRGhaziabad, Uttar Pradesh
19/==/SBBSahibabad Junction (5)X  20:41 20:45+1320:43 20:46+142 1m--1-460.933209mNRGhaziabad, Uttar Pradesh
20/==/NZMDelhi Hazrat Nizamuddin (7)O21:15+1521:55+1340m11-444.925209mNRNew Delhi 110013, Delhi NCT
21/==/TKDTuglakabad (2)XO  22:18+1122:20+152m11-435.244213mNRNear Tughlakabad Metro Station, Delhi NCT
22/==/FDBFaridabad (4)O  22:44 22:35+1122:46 22:36+132 1m31-424.135206mNRold Faridabad, Haryana
23/==/BVHBallabgarh (5)XO  22:58 22:50+1123:00 22:52+112m--1-416.029203mNRFaridabad, Haryana
24/==/PWLPalwal (8)X  23:36+123:38+32m--1-394.885200mNRPalwal, Haryana
25/==/KSVKosi Kalan (3)O  00:08+1700:10+182m22-352.429189mNCRKosi Kalan, Uttar Pradesh
26/==/MTJMathura Junction (10)XO  01:35+101:45 01:40+410 5m32-310.961179mNCRMathura, Uttar Pradesh
27/==/BTEBharatpur Junction (5)  02:10 02:13+202:15+55 2m--2-277.484174mWCRBharatpur, Rajasthan
28/==/BXNBayana Junction (3)X  02:45+602:47+82m--2-235.470198mWCRBayana, Rajasthan
29/==/HANHindaun City (2)  03:15+1203:17+142m--2-202.556230mWCRKarauli, Rajasthan
30/==/SMBJShri Mahabirji (3)O  03:26 03:28+1403:28 03:30+142m--2-192.341240mWCRKarauli, Rajasthan
31/==/GGCGangapur City (3)  04:10 04:20+104:20 04:25+610 5m--2-158.263270mWCRGangapur, Rajasthan
32/==/MLZMalarnaX  04:50 04:57+804:52 04:59+82m--2-124.586236mWCRSawai Madhopur, Rajasthan
33/==/SWMSawai Madhopur Junction (4)X  05:20+1305:25+135m--2-94.378266mWCRSawai Madhopur, Rajasthan
34/==/IDGIndargarh Sumerganj Mandi (2)X  05:48 05:53+1405:50 05:55+162m--2-58.166247mWCRIndargarh, Rajasthan
35/==/LKELakheri (3)  05:58 06:05+1706:00 06:07+172m--2-47.169228mWCRBundi, Rajasthan
36/==/KPTNKeshorai Patan»XO  06:38 06:48+1906:40 06:50+212m--20.053243mWCRSH 33, Rajasthan
37/==/GQLGurlaO  06:48 06:59+2306:50 07:00+252 1m--28.011251mWCRSH 33, Rajasthan
38|--|KOTAKota Junction (5)X07:30+1107:50+1620m2213.433256mWCRKota, Rajasthan
39/==/DKNTDakaniya Talav (2)  08:01 08:07+1508:03 08:08+172 1m2222.779278mWCRKota, Rajasthan
40/==/DARADara  08:30 08:37+1908:32 08:39+202m--260.863354mWCRDara, Rajasthan
41/==/MKXMorak (2)X  08:48 08:53+2008:50 08:55+202m--275.642337mWCRMorak, Rajasthan
42/==/RMARamganj Mandi Junction (3)  09:03 09:08+1709:05 09:10+222m--284.657358mWCRRamganj Mandi, Rajasthan
43/==/JHWJhalawar Road (3)  09:18 09:23+2009:20 09:25+212m--297.055361mWCRJhalawar City, Rajasthan
44/==/BWMBhawani Mandi (3)  09:38 09:43+1909:40 09:45+242m--2113.576384mWCRBhawani Mandi, Madhya Pradesh
45/==/GOHGaroth (2)X  09:58 10:03+2510:00 10:05+252m12136.128441mWCRMadhya Pradesh 458880, Madhya Pradesh
46/==/SGZShamgarh (3)X  10:25 10:28+1410:30+215 2m--2147.067463mWCRMandsaur, Madhya Pradesh
47/==/SVASuwasra (2)  10:42+2210:44+242m--2160.466450mWCRSuwasra, Madhya Pradesh
48/==/CMUChau Mahla (3)  10:58+2311:00+262m12175.835426mWCRJhalawar, Rajasthan
49/==/THURThuriaX  11:24+1511:26+172m--2189.921430mWCRMDR 45, Madhya Pradesh
50/==/VMAVikramgarh Alot (2)X  11:48+711:50+142m12197.661443mWCRKota Division, Madhya Pradesh
51/==/LNRLuni Richha  12:03+1312:05+142m--2210.828471mWCRAlote, Madhya Pradesh
52/==/MEPMahidpur Road  12:28+512:30+82m--2221.529493mWCRGogapur, Madhya Pradesh
53/==/NADNagda Junction (4)  13:05+613:15+810m--2238.564468mWRNagda, Madhya Pradesh
54/==/KUHKhachrod (2)  13:26 13:28+1013:28 13:30+112m--2252.357497mWRUjjain, Madhya Pradesh
55/==/RNHRunkheraX  13:39 13:41+1013:41 13:42+112 1m--2262.855478mWRUjjain, Madhya Pradesh
56/==/BODBangrodX  13:48 13:50+1113:50 13:51+112 1m--2270.225484mWRRatlam, Madhya Pradesh
57/==/RTMRatlam Junction (7)X  14:15+714:35+820m42280.070495mWRRatlam 457001, Madhya Pradesh
58/==/RTIRaoti (2)  14:56 14:58+1314:58 14:59+132 1m--2306.965409mWRState Highway 39A, Madhya Pradesh
59/==/BOGBhairongarh (2)  15:08 15:10+1315:10 15:11+132 1m--2318.845374mWRBhairongarh Railway Station, Madhya Pradesh
60/==/BMIBamnia (2)  15:17 15:19+1415:19 15:21+142m--2324.742392mWRBamnia, Madhya Pradesh
61/==/AGRAmargarh (2)  15:25 15:27+1415:27 15:28+142 1m--2328.952410mWRSH 39A, Madhya Pradesh
62/==/PCNPanch Pipila (2)  15:37 15:39+1415:39 15:40+132 1m--2338.376369mWRSH 39A, Madhya Pradesh
63/==/THDRThandla Road (2)X  15:49 15:51+1615:51 15:53+152m--2352.360317mWRJhabua, Madhya Pradesh
64/==/MGNMeghnagar (3)  15:59 16:01+1616:01 16:03+152m--2360.373317mWRJhabua, Madhya Pradesh
65/==/ANASAnas (2)  16:13 16:15+1616:15 16:16+162 1m--2374.868288mWRMadhya Pradesh 389154 ?, Madhya Pradesh
66/==/BIOBordi (2)  16:21 16:23+1716:23 16:24+172 1m--2382.858289mWRNational Highway 59, Gujarat
67/==/DHDDahod (3)X  16:35+2116:40 16:37+245 2m--2393.464313mWRDahod, Gujarat
68/==/LMKLimkheda  17:06 17:08+2717:08 17:09+282 1m--2426.360205mWRLimkheda, Gujarat
69/==/PPDPiplod Junction  17:15 17:17+2817:17 17:19+272m--2434.379209mWRPiplod, Gujarat
70/==/SATSant Road (2)X  17:26 17:28+2717:28 17:30+262m22446.120169mWROrwara, Gujarat
71/==/GDAGodhra Junction (3)X  18:30+318:35+65m102466.554122mWRGodhra, Gujarat
72/==/KRSAKharsaliya (2)  18:45 18:47+918:47 18:48+92 1m--2477.376107mWRPanchmahal, Gujarat
73/==/DRLDerolX  18:56 18:58+1018:58 19:00+102m12490.16881mWRKalol, Gujarat
74/==/CPNChampaner Road JunctionXO  19:09 19:11+919:11 19:13+92m--2502.67578mWRPanchmahal, Gujarat
75/==/SMLASamlaya Junction (3)X  19:20 19:22+919:22 19:24+92m--2513.85267mWRVadodara, Gujarat
76/==/BRCVadodara Junction (7)  19:55+2120:05+2110m32540.48136mWRVadodara 390005, Gujarat
77/==/MYGMiyagam Karjan (2)  20:25 20:27+2820:27 20:28+282 1m--2570.27029mWRKarjan, Gujarat
78/==/BHBharuch Junction (5)X  21:01 21:03+2021:03 21:05+202m42610.96219mWRBharuch, Gujarat
79/==/AKVAnkleshwar Junction (4)X  21:12 21:14+1821:14 21:16+182m22620.29319mWRAnkleshwar, Gujarat
80/==/KSBKosamba Junction (3)X21:29 21:28+2721:31 21:30+252m--2638.83130mWRKosamba, Gujarat
81/==/STSurat (4)X  22:30+722:38+88m22670.27419mWRSurat 395001, Gujarat
82/==/NVSNavsari (3)  23:03 23:02+1523:05+152 3m--2699.87914mWRNavsari, Gujarat
83/==/BIMBilimora Junction (4)X  23:21+2023:23+202m--2720.93611mWRBilimora, Gujarat
84/==/BLValsad (3)  23:53+1423:55+212m32738.93815mWRValsad, Gujarat
85/==/VAPIVapi (3)X  00:36+900:38+112m--3765.16827mWRVapi, Gujarat
86/==/PLGPalghar (3)X  02:04 01:50+2002:06 02:02+172 12m--3846.63519mWRPalghar, Maharashtra
87/==/VRVirar (8)  02:56+302:58+42m--3877.8536mWRDist. Palghar, Maharashtra
88/==/BVIMumbai Borivali (8)  03:30 03:27+303:32+42 5m53903.62319mWRMumbai - 400092, Maharashtra
89/==/BDTSMumbai Bandra Terminus (5)•  04:20-3-13922.3-4mWRMumbai 400050, Maharashtra
Scroll to Top
Scroll to Bottom